IDEFIX & ARIANE 42P R/B

Last updated on Thu Oct 30 2025 00:02:15 GMT+0000 (Coordinated Universal Time)

1 27422U 02021B 25302.39073877 .00000464 00000+0 19320-3 0 9999 2 27422 98.5714 237.6740 0011065 209.8213 150.2340 14.30901076225241
UTC large
Height (km)
Speed (km/s)
/
Latitude / Longitude
Inclination (degrees)
Orbital Period (minutes)
Azimuth
Elevation
Range (km)
Doppler Factor

Next 0 passes for location: London (51.5072 / 0.1276)

Sorry there are no passes over London.